Location: Lucerne Valley
(34.4439°N, 116.9669°E)
Time: 06:08:03
(UTC-08:00)

Vanguard 1 - All Passes

Search period start: 24 February 2018 00:00
Search period end: 06 March 2018 00:00
Orbit: 650 x 3833 km, 34.2° (Epoch: 23 February)

Date Brightness Start Highest point End Pass type
(mag) Time Alt. Az. Time Alt. Az. Time Alt. Az.
24 Feb - 01:31:38 10° W 01:40:56 80° SSW 01:46:17 10° ESE daylight
24 Feb - 03:55:57 10° W 04:00:33 24° SW 04:04:14 10° SSE visible
24 Feb - 18:35:54 10° SSW 18:53:44 32° SSE 19:06:07 10° E daylight
24 Feb - 20:59:17 10° SW 21:17:57 63° SSE 21:28:08 10° E daylight
24 Feb - 23:26:46 10° W 23:40:42 88° S 23:47:55 10° E daylight
25 Feb - 01:53:10 10° W 02:01:54 68° SSW 02:07:04 10° ESE daylight
25 Feb - 04:18:03 10° WSW 04:21:07 15° SW 04:23:49 10° S visible
25 Feb - 16:40:28 10° SSE 16:50:13 14° SE 16:58:53 10° ESE daylight
25 Feb - 18:55:41 10° SSW 19:15:07 41° SSE 19:27:54 10° E daylight
25 Feb - 21:20:38 10° WSW 21:39:14 72° SSE 21:49:08 10° E daylight
25 Feb - 23:48:35 10° W 00:01:54 90° S 00:08:50 10° E daylight
26 Feb - 02:14:40 10° W 02:22:46 53° SSW 02:27:44 10° SE daylight
26 Feb - 16:56:58 10° S 17:11:35 21° SE 17:23:45 10° E daylight
26 Feb - 19:15:58 10° SW 19:36:28 49° SSE 19:49:20 10° E daylight
26 Feb - 21:42:14 10° WSW 22:00:32 80° SSE 22:10:07 10° E daylight
27 Feb - 00:10:22 10° W 00:23:04 87° S 00:29:44 10° E daylight
27 Feb - 02:36:13 10° W 02:43:29 39° SSW 02:48:12 10° SE visible
27 Feb - 17:15:17 10° S 17:32:55 28° SE 17:46:50 10° E daylight
27 Feb - 19:36:42 10° SW 19:57:50 58° SSE 20:10:35 10° E daylight
27 Feb - 22:04:02 10° WSW 22:21:51 86° S 22:31:05 10° E daylight
28 Feb - 00:32:06 10° W 00:44:11 80° SSW 00:50:36 10° ESE daylight
28 Feb - 02:57:57 10° W 03:04:04 27° SW 03:08:22 10° SSE visible
28 Feb - 17:34:32 10° SSW 17:54:13 36° SE 18:09:04 10° E daylight
28 Feb - 19:57:47 10° SW 20:19:14 67° SSE 20:31:44 10° E daylight
28 Feb - 22:25:56 10° W 22:43:10 89° S 22:52:02 10° E daylight
01 Mar - 00:53:47 10° W 01:05:11 70° SSW 01:11:22 10° ESE daylight
01 Mar - 03:20:05 10° W 03:24:31 18° SW 03:28:00 10° S visible
01 Mar - 15:39:00 10° SSE 15:50:37 16° SE 16:01:27 10° ESE daylight
01 Mar - 17:54:23 10° SSW 18:15:31 44° SSE 18:30:51 10° E daylight
01 Mar - 20:19:10 10° WSW 20:40:37 75° SSE 20:52:48 10° E daylight
01 Mar - 22:47:52 10° W 23:04:29 90° S 23:12:59 10° E daylight
02 Mar - 01:15:27 10° W 01:26:05 57° SSW 01:32:01 10° SE daylight
02 Mar - 03:44:14 10° SW 03:44:54 10° SW 03:45:32 10° SW visible
02 Mar - 15:56:02 10° S 16:11:47 23° SE 16:25:59 10° E daylight
02 Mar - 18:14:43 10° SW 18:36:52 53° SSE 18:52:20 10° E daylight
02 Mar - 20:40:49 10° WSW 21:02:02 82° SSE 21:13:50 10° E daylight
02 Mar - 23:09:48 10° W 23:25:45 87° S 23:33:55 10° E daylight
03 Mar - 01:37:09 10° W 01:46:48 43° SSW 01:52:28 10° SE daylight
03 Mar - 16:14:33 10° S 16:32:55 31° SE 16:49:01 10° E daylight
03 Mar - 18:35:27 10° SW 18:58:15 62° SSE 19:13:38 10° ENE daylight
03 Mar - 21:02:39 10° WSW 21:23:29 87° S 21:34:52 10° E daylight
03 Mar - 23:31:41 10° W 23:46:56 81° SSW 23:54:48 10° ESE daylight
04 Mar - 01:59:00 10° W 02:07:21 31° SW 02:12:37 10° SSE daylight
04 Mar - 14:26:46 10° SE 14:29:44 10° SE 14:32:43 10° ESE daylight
04 Mar - 16:33:53 10° SSW 16:54:04 39° SE 17:11:16 10° E daylight
04 Mar - 18:56:31 10° SW 19:19:41 70° SSE 19:34:51 10° ENE daylight
04 Mar - 21:24:36 10° W 21:44:58 89° S 21:55:53 10° E daylight
04 Mar - 23:53:31 10° W 00:08:02 71° SSW 00:15:35 10° ESE daylight
05 Mar - 02:21:10 10° W 02:27:45 21° SW 02:32:21 10° S daylight
05 Mar - 14:38:47 10° SSE 14:50:43 17° SE 15:02:42 10° E daylight
05 Mar - 16:53:47 10° SSW 17:15:16 47° SE 17:33:07 10° E daylight
05 Mar - 19:17:52 10° WSW 19:41:12 78° SSE 19:56:00 10° E daylight
05 Mar - 21:46:37 10° W 22:06:24 89° S 22:16:53 10° E daylight
